,,,PA_Meas_PMT16A,,PR_Meas_QMR101_102,,RH_Meas_QMH101,,SR_Meas_QMS101,,TA_Meas_QMH101,,GenWind,,GenWind,
date,time,status,PA,status,PR,status,RH,status,SR,status,TA,status,DirAvg,status,SpdAvg,
2012-01-12, 00:00:04,VALID,1001.2,VALID,0,VALID,94.5234,VALID,0,VALID,23.5451,VALID,98,VALID,0,
2012-01-12, 00:01:04,VALID,1001.17,VALID,0,VALID,94.5005,VALID,0,VALID,23.5061,VALID,98,VALID,0,
2012-01-12, 00:02:04,VALID,1001.17,VALID,0,VALID,94.5005,VALID,0,VALID,23.4653,VALID,98,VALID,0,
2012-01-12, 00:03:04,VALID,1001.16,VALID,0,VALID,94.5234,VALID,0,VALID,23.4671,VALID,98,VALID,0.321094,
2012-01-12, 00:04:04,VALID,1001.16,VALID,0,VALID,94.5081,VALID,0,VALID,23.4475,VALID,98,VALID,0.337109,
2012-01-12, 00:05:04,VALID,1001.14,VALID,0,VALID,94.5234,VALID,0,VALID,23.4671,VALID,98,VALID,0.334766,
2012-01-12, 00:06:04,VALID,1001.11,VALID,0,VALID,94.5234,VALID,0,VALID,23.5079,VALID,120,VALID,0.707422,
2012-01-12, 00:07:04,VALID,1001.13,VALID,0,VALID,94.531,VALID,0,VALID,23.4866,VALID,121,VALID,0.208984,
2012-01-12, 00:08:04,VALID,1001.08,VALID,0,VALID,94.5386,VALID,0,VALID,23.4866,VALID,121,VALID,0.0847656,
2012-01-12, 00:09:04,VALID,1001.08,VALID,0,VALID,94.5157,VALID,0,VALID,23.5079,VALID,121,VALID,0,
2012-01-12, 00:10:04,VALID,1001.06,VALID,0,VALID,94.5462,VALID,0,VALID,23.4866,VALID,186,VALID,0.303516,
2012-01-12, 00:11:04,VALID,1001.03,VALID,0,VALID,94.5462,VALID,0,VALID,23.5274,VALID,186,VALID,0.486719,
2012-01-12, 00:12:04,VALID,1001.03,VALID,0,VALID,94.5386,VALID,0,VALID,23.5061,VALID,186,VALID,0.426953,
2012-01-12, 00:13:04,VALID,1001.01,VALID,0,VALID,94.5462,VALID,0,VALID,23.5061,VALID,186,VALID,0.389844,
2012-01-12, 00:14:04,VALID,1000.96,VALID,0,VALID,94.5539,VALID,0,VALID,23.5061,VALID,186,VALID,0.358203,
2012-01-12, 00:15:04,VALID,1000.94,VALID,0,VALID,94.5386,VALID,0,VALID,23.5061,VALID,186,VALID,0.294141,
2012-01-12, 00:16:04,VALID,1000.92,VALID,0,VALID,94.5615,VALID,0,VALID,23.4866,VALID,186,VALID,0.383203,
2012-01-12, 00:17:04,VALID,1000.87,VALID,0,VALID,94.5691,VALID,0,VALID,23.5079,VALID,186,VALID,0.0308594,
2012-01-12, 00:18:04,VALID,1000.88,VALID,0,VALID,94.5386,VALID,0,VALID,23.4848,VALID,186,VALID,0.0980469,
2012-01-12, 00:19:04,VALID,1000.84,VALID,0,VALID,94.5615,VALID,0,VALID,23.5061,VALID,186,VALID,0.112891,
2012-01-12, 00:20:04,VALID,1000.84,VALID,0,VALID,94.5691,VALID,0,VALID,23.4848,VALID,186,VALID,0.389453,
2012-01-12, 00:21:04,VALID,1000.83,VALID,0,VALID,94.5539,VALID,0,VALID,23.5043,VALID,155,VALID,0.862891,
2012-01-12, 00:22:04,VALID,1000.81,VALID,0,VALID,94.5539,VALID,0,VALID,23.5256,VALID,143,VALID,0.730859,
2012-01-12, 00:23:04,VALID,1000.82,VALID,0,VALID,94.5768,VALID,0,VALID,23.5238,VALID,136,VALID,0.654688,
2012-01-12, 00:24:04,VALID,1000.84,VALID,0,VALID,94.5691,VALID,0,VALID,23.5433,VALID,136,VALID,0.664453,
2012-01-12, 00:25:04,VALID,1000.82,VALID,0,VALID,94.5539,VALID,0,VALID,23.5646,VALID,135,VALID,0.603125,
2012-01-12, 00:26:04,VALID,1000.79,VALID,0,VALID,94.5539,VALID,0.104696,VALID,23.5628,VALID,129,VALID,0.750391,
2012-01-12, 00:27:04,VALID,1000.8,VALID,0,VALID,94.5157,VALID,0,VALID,23.5433,VALID,126,VALID,0.517187,
2012-01-12, 00:28:04,VALID,1000.77,VALID,0,VALID,94.5157,VALID,0,VALID,23.5433,VALID,126,VALID,0.564453,
2012-01-12, 00:29:04,VALID,1000.72,VALID,0,VALID,94.5234,VALID,0,VALID,23.5433,VALID,126,VALID,0.471484,
2012-01-12, 00:30:04,VALID,1000.72,VALID,0,VALID,94.5081,VALID,0,VALID,23.5646,VALID,126,VALID,0.546094,
2012-01-12, 00:31:04,VALID,1000.71,VALID,0,VALID,94.4852,VALID,0,VALID,23.5433,VALID,126,VALID,0.513672,
2012-01-12, 00:32:04,VALID,1000.67,VALID,0,VALID,94.4852,VALID,0,VALID,23.5433,VALID,115,VALID,0.478906,
2012-01-12, 00:33:04,VALID,1000.65,VALID,0,VALID,94.4776,VALID,0,VALID,23.5433,VALID,115,VALID,0.145703,
2012-01-12, 00:34:04,VALID,1000.62,VALID,0,VALID,94.4776,VALID,0,VALID,23.5433,VALID,115,VALID,0.191797,
2012-01-12, 00:35:04,VALID,1000.6,VALID,0,VALID,94.4776,VALID,0,VALID,23.5433,VALID,115,VALID,0.215625,
2012-01-12, 00:36:04,VALID,1000.55,VALID,0,VALID,94.4852,VALID,0.104696,VALID,23.5238,VALID,115,VALID,0.293359,
2012-01-12, 00:37:04,VALID,1000.54,VALID,0,VALID,94.4547,VALID,0,VALID,23.5451,VALID,115,VALID,0.133203,
2012-01-12, 00:38:04,VALID,1000.51,VALID,0,VALID,94.4623,VALID,0,VALID,23.5451,VALID,115,VALID,0.259766,
2012-01-12, 00:39:04,VALID,1000.49,VALID,0,VALID,94.4623,VALID,0,VALID,23.5043,VALID,113,VALID,0.413672,
2012-01-12, 00:40:04,VALID,1000.48,VALID,0,VALID,94.4547,VALID,0,VALID,23.5043,VALID,106,VALID,0.523828,
2012-01-12, 00:41:04,VALID,1000.45,VALID,0,VALID,94.4623,VALID,0,VALID,23.5451,VALID,55,VALID,0.549609,
2012-01-12, 00:42:04,VALID,1000.44,VALID,0,VALID,94.4547,VALID,0,VALID,23.5238,VALID,55,VALID,0.502734,
2012-01-12, 00:43:04,VALID,1000.39,VALID,0,VALID,94.4471,VALID,0,VALID,23.5451,VALID,55,VALID,0.476563,
2012-01-12, 00:44:04,VALID,1000.37,VALID,0,VALID,94.4394,VALID,0,VALID,23.5238,VALID,55,VALID,0.45625,
2012-01-12, 00:45:04,VALID,1000.33,VALID,0,VALID,94.4623,VALID,0,VALID,23.5433,VALID,55,VALID,0.349609,
2012-01-12, 00:46:04,VALID,1000.31,VALID,0,VALID,94.4623,VALID,0,VALID,23.5451,VALID,55,VALID,0.273828,
2012-01-12, 00:47:04,VALID,1000.29,VALID,0,VALID,94.4394,VALID,0,VALID,23.5646,VALID,55,VALID,0.504297,
2012-01-12, 00:48:04,VALID,1000.26,VALID,0,VALID,94.4471,VALID,0,VALID,23.5646,VALID,352,VALID,0.650391,
2012-01-12, 00:49:04,VALID,1000.24,VALID,0,VALID,94.4471,VALID,0,VALID,23.5433,VALID,352,VALID,0.632422,
2012-01-12, 00:50:04,VALID,1000.23,VALID,0,VALID,94.4394,VALID,0,VALID,23.5433,VALID,352,VALID,0.377344,
2012-01-12, 00:51:04,VALID,1000.24,VALID,0,VALID,94.4547,VALID,0,VALID,23.5628,VALID,352,VALID,0.392969,
2012-01-12, 00:52:04,VALID,1000.24,VALID,0,VALID,94.4318,VALID,0,VALID,23.5433,VALID,352,VALID,0.473437,
2012-01-12, 00:53:04,VALID,1000.25,VALID,0,VALID,94.4394,VALID,0.104696,VALID,23.5433,VALID,352,VALID,0.521875,
2012-01-12, 00:54:04,VALID,1000.27,VALID,0,VALID,94.4623,VALID,0,VALID,23.5646,VALID,352,VALID,0.433984,
2012-01-12, 00:55:04,VALID,1000.28,VALID,0,VALID,94.4471,VALID,0,VALID,23.5238,VALID,352,VALID,0.433984,
2012-01-12, 00:56:04,VALID,1000.25,VALID,0,VALID,94.4471,VALID,0,VALID,23.5238,VALID,352,VALID,0.448828,
2012-01-12, 00:57:04,VALID,1000.23,VALID,0,VALID,94.4471,VALID,0,VALID,23.5043,VALID,352,VALID,0.263281,
2012-01-12, 00:58:04,VALID,1000.21,VALID,0,VALID,94.4318,VALID,0.104696,VALID,23.483,VALID,352,VALID,0.304688,
2012-01-12, 00:59:04,VALID,1000.2,VALID,0,VALID,94.4547,VALID,0,VALID,23.5043,VALID,352,VALID,0.285937,
2012-01-12, 01:00:04,VALID,1000.24,VALID,0,VALID,94.4471,VALID,0,VALID,23.4848,VALID,352,VALID,0.402734,
2012-01-12, 01:01:04,VALID,1000.22,VALID,0,VALID,94.4547,VALID,0,VALID,23.4848,VALID,352,VALID,0.574609,
2012-01-12, 01:02:04,VALID,1000.24,VALID,0,VALID,94.4471,VALID,0,VALID,23.5061,VALID,44,VALID,0.876562,
2012-01-12, 01:03:04,VALID,1000.21,VALID,0,VALID,94.4776,VALID,0.104696,VALID,23.4848,VALID,49,VALID,1.12461,
2012-01-12, 01:04:04,VALID,1000.2,VALID,0,VALID,94.47,VALID,0,VALID,23.5043,VALID,53,VALID,0.991797,
2012-01-12, 01:05:04,VALID,1000.21,VALID,0,VALID,94.4776,VALID,0,VALID,23.5238,VALID,58,VALID,0.89375,
2012-01-12, 01:06:04,VALID,1000.19,VALID,0,VALID,94.4471,VALID,0,VALID,23.5238,VALID,65,VALID,0.730469,
2012-01-12, 01:07:04,VALID,1000.21,VALID,0,VALID,94.4318,VALID,0,VALID,23.5238,VALID,84,VALID,0.655469,
2012-01-12, 01:08:04,VALID,1000.19,VALID,0,VALID,94.4471,VALID,0,VALID,23.5646,VALID,98,VALID,0.738672,
2012-01-12, 01:09:04,VALID,1000.19,VALID,0,VALID,94.4318,VALID,0,VALID,23.5646,VALID,101,VALID,1.03086,
2012-01-12, 01:10:04,VALID,1000.2,VALID,0,VALID,94.4318,VALID,0,VALID,23.5433,VALID,101,VALID,1.14844,
2012-01-12, 01:11:04,VALID,1000.2,VALID,0,VALID,94.4318,VALID,0,VALID,23.5451,VALID,101,VALID,1.01914,
2012-01-12, 01:12:04,VALID,1000.19,VALID,0,VALID,94.4394,VALID,0,VALID,23.5646,VALID,101,VALID,1.09063,
2012-01-12, 01:13:04,VALID,1000.13,VALID,0,VALID,94.4242,VALID,0,VALID,23.5433,VALID,101,VALID,0.8375,
2012-01-12, 01:14:04,VALID,1000.14,VALID,0,VALID,94.4165,VALID,0,VALID,23.5238,VALID,100,VALID,0.686328,
2012-01-12, 01:15:04,VALID,1000.08,VALID,0,VALID,94.4242,VALID,0,VALID,23.5238,VALID,70,VALID,0.762891,
2012-01-12, 01:16:04,VALID,1000.09,VALID,0,VALID,94.3937,VALID,0,VALID,23.5043,VALID,60,VALID,0.627344,
2012-01-12, 01:17:04,VALID,1000.06,VALID,0,VALID,94.3708,VALID,0,VALID,23.5043,VALID,40,VALID,0.733594,
2012-01-12, 01:18:04,VALID,1000.03,VALID,0,VALID,94.3631,VALID,0,VALID,23.5061,VALID,40,VALID,0.726563,
2012-01-12, 01:19:04,VALID,999.994,VALID,0,VALID,94.3555,VALID,0,VALID,23.4866,VALID,40,VALID,0.645312,
2012-01-12, 01:20:04,VALID,999.978,VALID,0,VALID,94.3479,VALID,0,VALID,23.5061,VALID,40,VALID,0.41875,
2012-01-12, 01:21:04,VALID,999.99,VALID,0,VALID,94.3631,VALID,0,VALID,23.5061,VALID,40,VALID,0.00546875,
2012-01-12, 01:22:04,VALID,999.969,VALID,0,VALID,94.3326,VALID,0,VALID,23.4848,VALID,40,VALID,0,
2012-01-12, 01:23:04,VALID,999.922,VALID,0,VALID,94.3403,VALID,0,VALID,23.4866,VALID,40,VALID,0,
2012-01-12, 01:24:04,VALID,999.94,VALID,0,VALID,94.3555,VALID,0,VALID,23.4866,VALID,40,VALID,0,
2012-01-12, 01:25:04,VALID,999.919,VALID,0,VALID,94.3555,VALID,0,VALID,23.4671,VALID,40,VALID,0,
2012-01-12, 01:26:04,VALID,999.88,VALID,0,VALID,94.3631,VALID,0.104696,VALID,23.4458,VALID,40,VALID,0,
2012-01-12, 01:27:04,VALID,999.838,VALID,0,VALID,94.3479,VALID,0,VALID,23.4263,VALID,40,VALID,0,
2012-01-12, 01:28:04,VALID,999.829,VALID,0,VALID,94.3631,VALID,0,VALID,23.4475,VALID,40,VALID,0,
2012-01-12, 01:29:04,VALID,999.81,VALID,0,VALID,94.3479,VALID,0,VALID,23.4475,VALID,40,VALID,0,
2012-01-12, 01:30:04,VALID,999.783,VALID,0,VALID,94.3631,VALID,0,VALID,23.4263,VALID,40,VALID,0,
2012-01-12, 01:31:04,VALID,999.788,VALID,0,VALID,94.3631,VALID,0,VALID,23.4263,VALID,40,VALID,0,
2012-01-12, 01:32:04,VALID,999.757,VALID,0,VALID,94.3555,VALID,0,VALID,23.4475,VALID,40,VALID,0,
2012-01-12, 01:33:04,VALID,999.734,VALID,0,VALID,94.386,VALID,0,VALID,23.4085,VALID,40,VALID,0,
2012-01-12, 01:34:04,VALID,999.726,VALID,0,VALID,94.3937,VALID,0,VALID,23.4493,VALID,40,VALID,0,
2012-01-12, 01:35:04,VALID,999.738,VALID,0,VALID,94.4089,VALID,0,VALID,23.4688,VALID,40,VALID,0,
2012-01-12, 01:36:04,VALID,999.725,VALID,0,VALID,94.4013,VALID,0,VALID,23.4671,VALID,40,VALID,0,
2012-01-12, 01:37:04,VALID,999.734,VALID,0,VALID,94.4242,VALID,0,VALID,23.4884,VALID,40,VALID,0,
2012-01-12, 01:38:04,VALID,999.735,VALID,0,VALID,94.4394,VALID,0,VALID,23.4866,VALID,40,VALID,0,
2012-01-12, 01:39:04,VALID,999.713,VALID,0,VALID,94.4318,VALID,0,VALID,23.5061,VALID,40,VALID,0,
2012-01-12, 01:40:04,VALID,999.688,VALID,0,VALID,94.4318,VALID,0,VALID,23.5469,VALID,69,VALID,0.759766,
2012-01-12, 01:41:04,VALID,999.697,VALID,0,VALID,94.4547,VALID,0,VALID,23.5256,VALID,88,VALID,0.826953,
2012-01-12, 01:42:04,VALID,999.691,VALID,0,VALID,94.4471,VALID,0,VALID,23.5664,VALID,99,VALID,0.428516,
2012-01-12, 01:43:04,VALID,999.724,VALID,0,VALID,94.4242,VALID,0,VALID,23.5256,VALID,99,VALID,0.502344,
2012-01-12, 01:44:04,VALID,999.687,VALID,0,VALID,94.4089,VALID,0,VALID,23.5451,VALID,99,VALID,0,
2012-01-12, 01:45:04,VALID,999.694,VALID,0,VALID,94.4013,VALID,0,VALID,23.5664,VALID,99,VALID,0,
2012-01-12, 01:46:04,VALID,999.707,VALID,0,VALID,94.4013,VALID,0,VALID,23.5664,VALID,66,VALID,0.666797,
2012-01-12, 01:47:04,VALID,999.676,VALID,0,VALID,94.3784,VALID,0,VALID,23.5859,VALID,33,VALID,0.672656,
2012-01-12, 01:48:04,VALID,999.665,VALID,0,VALID,94.3708,VALID,0,VALID,23.5628,VALID,33,VALID,0.643359,
2012-01-12, 01:49:04,VALID,999.661,VALID,0,VALID,94.3708,VALID,0,VALID,23.6036,VALID,33,VALID,0.573047,
2012-01-12, 01:50:04,VALID,999.656,VALID,0,VALID,94.3479,VALID,0,VALID,23.6036,VALID,33,VALID,0.590625,
2012-01-12, 01:51:04,VALID,999.66,VALID,0,VALID,94.3479,VALID,0.104696,VALID,23.6019,VALID,14,VALID,0.770703,
2012-01-12, 01:52:04,VALID,999.679,VALID,0,VALID,94.3479,VALID,0,VALID,23.6232,VALID,360,VALID,0.919141,
2012-01-12, 01:53:04,VALID,999.684,VALID,0,VALID,94.3479,VALID,0,VALID,23.6019,VALID,360,VALID,0.677734,
2012-01-12, 01:54:04,VALID,999.655,VALID,0,VALID,94.3479,VALID,0,VALID,23.6232,VALID,360,VALID,0.573438,
2012-01-12, 01:55:04,VALID,999.708,VALID,0,VALID,94.3326,VALID,0,VALID,23.6427,VALID,360,VALID,0.601172,
2012-01-12, 01:56:04,VALID,999.681,VALID,0,VALID,94.3479,VALID,0,VALID,23.6427,VALID,1,VALID,0.435156,
2012-01-12, 01:57:04,VALID,999.656,VALID,0,VALID,94.3403,VALID,0,VALID,23.6019,VALID,360,VALID,0,
2012-01-12, 01:58:04,VALID,999.685,VALID,0,VALID,94.3403,VALID,0,VALID,23.6214,VALID,1,VALID,0,
2012-01-12, 01:59:04,VALID,999.691,VALID,0,VALID,94.3403,VALID,0,VALID,23.6232,VALID,360,VALID,0,
2012-01-12, 02:00:04,VALID,999.65,VALID,0,VALID,94.3479,VALID,0,VALID,23.6232,VALID,1,VALID,0,
2012-01-12, 02:01:04,VALID,999.631,VALID,0,VALID,94.3174,VALID,0,VALID,23.6232,VALID,1,VALID,0,
2012-01-12, 02:02:04,VALID,999.626,VALID,0,VALID,94.325,VALID,0,VALID,23.6036,VALID,1,VALID,0,
2012-01-12, 02:03:04,VALID,999.648,VALID,0,VALID,94.3174,VALID,0,VALID,23.5823,VALID,37,VALID,0,
2012-01-12, 02:04:04,VALID,999.654,VALID,0,VALID,94.3097,VALID,0,VALID,23.6036,VALID,60,VALID,0,
2012-01-12, 02:05:04,VALID,999.685,VALID,0,VALID,94.325,VALID,0,VALID,23.5823,VALID,60,VALID,0,
2012-01-12, 02:06:04,VALID,999.745,VALID,0,VALID,94.2868,VALID,0.104696,VALID,23.6036,VALID,60,VALID,0,
2012-01-12, 02:07:04,VALID,999.734,VALID,0,VALID,94.325,VALID,0,VALID,23.5823,VALID,60,VALID,0,
2012-01-12, 02:08:04,VALID,999.753,VALID,0,VALID,94.3326,VALID,0,VALID,23.5628,VALID,60,VALID,0,
2012-01-12, 02:09:04,VALID,999.758,VALID,0,VALID,94.3097,VALID,0,VALID,23.5433,VALID,60,VALID,0,
2012-01-12, 02:10:04,VALID,999.766,VALID,0,VALID,94.3174,VALID,0,VALID,23.5628,VALID,60,VALID,0,
2012-01-12, 02:11:04,VALID,999.751,VALID,0,VALID,94.3174,VALID,0,VALID,23.5628,VALID,60,VALID,0,
2012-01-12, 02:12:04,VALID,999.738,VALID,0,VALID,94.3479,VALID,0,VALID,23.5628,VALID,60,VALID,0,
2012-01-12, 02:13:04,VALID,999.795,VALID,0,VALID,94.3326,VALID,0,VALID,23.5628,VALID,60,VALID,0,
2012-01-12, 02:14:04,VALID,999.787,VALID,0,VALID,94.3555,VALID,0,VALID,23.6036,VALID,60,VALID,0,
2012-01-12, 02:15:04,VALID,999.814,VALID,0,VALID,94.3479,VALID,0,VALID,23.6036,VALID,60,VALID,0,
2012-01-12, 02:16:04,VALID,999.825,VALID,0,VALID,94.3631,VALID,0,VALID,23.6232,VALID,107,VALID,0,
2012-01-12, 02:17:04,VALID,999.867,VALID,0,VALID,94.3708,VALID,0,VALID,23.6427,VALID,109,VALID,0,
2012-01-12, 02:18:04,VALID,999.896,VALID,0,VALID,94.3479,VALID,0,VALID,23.6409,VALID,125,VALID,0,
2012-01-12, 02:19:04,VALID,999.912,VALID,0,VALID,94.3326,VALID,0,VALID,23.6409,VALID,125,VALID,0,
2012-01-12, 02:20:04,VALID,999.927,VALID,0,VALID,94.3174,VALID,0,VALID,23.6409,VALID,125,VALID,0,
2012-01-12, 02:21:04,VALID,999.897,VALID,0,VALID,94.3097,VALID,0,VALID,23.6604,VALID,119,VALID,0,
2012-01-12, 02:22:04,VALID,999.921,VALID,0,VALID,94.2868,VALID,0,VALID,23.7012,VALID,114,VALID,0,
2012-01-12, 02:23:04,VALID,999.925,VALID,0,VALID,94.264,VALID,0,VALID,23.7012,VALID,132,VALID,0,
2012-01-12, 02:24:04,VALID,999.941,VALID,0,VALID,94.2487,VALID,0,VALID,23.6799,VALID,120,VALID,0,
2012-01-12, 02:25:04,VALID,999.949,VALID,0,VALID,94.2411,VALID,0,VALID,23.6994,VALID,120,VALID,0,
2012-01-12, 02:26:04,VALID,999.945,VALID,0,VALID,94.2258,VALID,0,VALID,23.7207,VALID,120,VALID,0,
2012-01-12, 02:27:04,VALID,999.946,VALID,0,VALID,94.2182,VALID,0,VALID,23.6994,VALID,120,VALID,0,
2012-01-12, 02:28:04,VALID,999.944,VALID,0,VALID,94.2029,VALID,0,VALID,23.7207,VALID,120,VALID,0,
2012-01-12, 02:29:04,VALID,999.94,VALID,0,VALID,94.2182,VALID,0,VALID,23.7189,VALID,120,VALID,0,
2012-01-12, 02:30:04,VALID,999.944,VALID,0,VALID,94.2258,VALID,0,VALID,23.7189,VALID,120,VALID,0,
2012-01-12, 02:31:04,VALID,999.933,VALID,0,VALID,94.2411,VALID,0,VALID,23.7189,VALID,120,VALID,0,
2012-01-12, 02:32:04,VALID,999.925,VALID,0,VALID,94.2105,VALID,0.104696,VALID,23.7189,VALID,126,VALID,0,
2012-01-12, 02:33:04,VALID,999.949,VALID,0,VALID,94.2411,VALID,0,VALID,23.7402,VALID,126,VALID,0,
2012-01-12, 02:34:04,VALID,999.944,VALID,0,VALID,94.2182,VALID,0,VALID,23.7189,VALID,126,VALID,0,
2012-01-12, 02:35:04,VALID,999.928,VALID,0,VALID,94.18,VALID,0.104696,VALID,23.7597,VALID,126,VALID,0,
2012-01-12, 02:36:04,VALID,999.937,VALID,0,VALID,94.18,VALID,0.104696,VALID,23.7384,VALID,126,VALID,0,
2012-01-12, 02:37:04,VALID,999.94,VALID,0,VALID,94.18,VALID,0,VALID,23.7384,VALID,126,VALID,0,
2012-01-12, 02:38:04,VALID,999.952,VALID,0,VALID,94.1648,VALID,0,VALID,23.7384,VALID,126,VALID,0,
2012-01-12, 02:39:04,VALID,999.948,VALID,0,VALID,94.1648,VALID,0,VALID,23.7597,VALID,90,VALID,0,
2012-01-12, 02:40:04,VALID,999.931,VALID,0,VALID,94.1877,VALID,0,VALID,23.7775,VALID,83,VALID,0.975391,
2012-01-12, 02:41:04,VALID,999.939,VALID,0,VALID,94.18,VALID,0,VALID,23.7988,VALID,84,VALID,0.748828,
2012-01-12, 02:42:04,VALID,999.923,VALID,0,VALID,94.1571,VALID,0,VALID,23.7988,VALID,84,VALID,0.628125,
2012-01-12, 02:43:04,VALID,999.934,VALID,0,VALID,94.1724,VALID,0.104696,VALID,23.797,VALID,86,VALID,0.522656,
2012-01-12, 02:44:04,VALID,999.94,VALID,0,VALID,94.1953,VALID,0.104696,VALID,23.797,VALID,86,VALID,0.578125,
2012-01-12, 02:45:04,VALID,999.927,VALID,0,VALID,94.1419,VALID,0,VALID,23.7775,VALID,83,VALID,0.764063,
2012-01-12, 02:46:04,VALID,999.964,VALID,0,VALID,94.1114,VALID,0.104696,VALID,23.7775,VALID,115,VALID,1.13164,
2012-01-12, 02:47:04,VALID,999.972,VALID,0,VALID,94.0274,VALID,0,VALID,23.7366,VALID,98,VALID,1.22305,
2012-01-12, 02:48:04,VALID,999.998,VALID,0,VALID,94.0122,VALID,0.104696,VALID,23.7579,VALID,75,VALID,0.983594,
2012-01-12, 02:49:04,VALID,999.977,VALID,0,VALID,93.9664,VALID,0,VALID,23.7579,VALID,61,VALID,0.955078,
2012-01-12, 02:50:04,VALID,999.983,VALID,0,VALID,93.8977,VALID,0,VALID,23.7775,VALID,63,VALID,0.727344,
2012-01-12, 02:51:04,VALID,999.972,VALID,0,VALID,93.8901,VALID,0,VALID,23.7775,VALID,32,VALID,0.711328,
2012-01-12, 02:52:04,VALID,999.987,VALID,0,VALID,93.8596,VALID,0,VALID,23.7775,VALID,52,VALID,0.860156,
2012-01-12, 02:53:04,VALID,999.99,VALID,0,VALID,93.852,VALID,0,VALID,23.8183,VALID,52,VALID,0,
2012-01-12, 02:54:04,VALID,999.983,VALID,0,VALID,93.852,VALID,0.104696,VALID,23.797,VALID,36,VALID,0.671094,
2012-01-12, 02:55:04,VALID,999.987,VALID,0,VALID,93.852,VALID,0.104696,VALID,23.8165,VALID,34,VALID,0.648047,
2012-01-12, 02:56:04,VALID,999.958,VALID,0,VALID,93.8596,VALID,0.104696,VALID,23.8165,VALID,20,VALID,0.650781,
2012-01-12, 02:57:04,VALID,999.982,VALID,0,VALID,93.8901,VALID,0,VALID,23.8165,VALID,20,VALID,0.334375,
2012-01-12, 02:58:04,VALID,999.976,VALID,0,VALID,93.9054,VALID,0,VALID,23.797,VALID,20,VALID,0,
2012-01-12, 02:59:04,VALID,999.979,VALID,0,VALID,93.9283,VALID,0,VALID,23.797,VALID,20,VALID,0,
2012-01-12, 03:00:04,VALID,999.98,VALID,0,VALID,93.9664,VALID,0,VALID,23.797,VALID,20,VALID,0,
2012-01-12, 03:01:04,VALID,999.969,VALID,0,VALID,93.974,VALID,0.104696,VALID,23.8165,VALID,84,VALID,0,
2012-01-12, 03:02:04,VALID,999.965,VALID,0,VALID,93.9817,VALID,0,VALID,23.8165,VALID,107,VALID,0,
2012-01-12, 03:03:04,VALID,999.994,VALID,0,VALID,93.974,VALID,0,VALID,23.7988,VALID,114,VALID,0.797656,
2012-01-12, 03:04:04,VALID,999.954,VALID,0,VALID,93.9435,VALID,0,VALID,23.8396,VALID,128,VALID,1.03711,
2012-01-12, 03:05:04,VALID,999.962,VALID,0,VALID,93.9206,VALID,0,VALID,23.8183,VALID,129,VALID,0.780859,
2012-01-12, 03:06:04,VALID,999.899,VALID,0,VALID,93.8825,VALID,0,VALID,23.8591,VALID,207,VALID,0.538281,
2012-01-12, 03:07:04,VALID,999.899,VALID,0,VALID,93.8977,VALID,0,VALID,23.8768,VALID,237,VALID,0.964844,
2012-01-12, 03:08:04,VALID,999.908,VALID,0,VALID,93.8825,VALID,0,VALID,23.9177,VALID,220,VALID,1.49063,
2012-01-12, 03:09:04,VALID,999.906,VALID,0,VALID,93.852,VALID,0,VALID,23.8768,VALID,223,VALID,0.923047,
2012-01-12, 03:10:04,VALID,999.905,VALID,0,VALID,93.8672,VALID,0,VALID,23.8982,VALID,210,VALID,0.494531,
2012-01-12, 03:11:04,VALID,999.885,VALID,0,VALID,93.8443,VALID,0,VALID,23.8768,VALID,236,VALID,1.04453,
2012-01-12, 03:12:04,VALID,999.928,VALID,0,VALID,93.8214,VALID,0,VALID,23.8768,VALID,220,VALID,0.819141,
2012-01-12, 03:13:04,VALID,999.921,VALID,0,VALID,93.7757,VALID,0,VALID,23.8573,VALID,161,VALID,0.508203,
2012-01-12, 03:14:04,VALID,999.875,VALID,0,VALID,93.6765,VALID,0,VALID,23.836,VALID,161,VALID,0.449609,
2012-01-12, 03:15:04,VALID,999.884,VALID,0,VALID,93.6231,VALID,0,VALID,23.8768,VALID,160,VALID,1.225,
2012-01-12, 03:16:04,VALID,999.864,VALID,0,VALID,93.5163,VALID,0,VALID,23.8963,VALID,134,VALID,0.885938,
2012-01-12, 03:17:04,VALID,999.87,VALID,0,VALID,93.3637,VALID,0,VALID,23.8963,VALID,111,VALID,1.47773,
2012-01-12, 03:18:04,VALID,999.862,VALID,0,VALID,92.9517,VALID,0,VALID,23.9372,VALID,105,VALID,1.58633,
2012-01-12, 03:19:04,VALID,999.893,VALID,0,VALID,92.6083,VALID,0,VALID,23.9567,VALID,106,VALID,1.66602,
2012-01-12, 03:20:04,VALID,999.845,VALID,0,VALID,92.4557,VALID,0,VALID,24.0153,VALID,110,VALID,1.45156,
2012-01-12, 03:21:04,VALID,999.823,VALID,0,VALID,92.3489,VALID,0,VALID,24.0348,VALID,109,VALID,1.69883,
2012-01-12, 03:22:04,VALID,999.793,VALID,0,VALID,92.3108,VALID,0,VALID,24.0153,VALID,111,VALID,1.43438,
2012-01-12, 03:23:04,VALID,999.815,VALID,0,VALID,92.4176,VALID,0,VALID,23.9939,VALID,108,VALID,0.892578,
2012-01-12, 03:24:04,VALID,999.732,VALID,0,VALID,92.5778,VALID,0,VALID,23.9939,VALID,99,VALID,0.944531,
2012-01-12, 03:25:04,VALID,999.715,VALID,0,VALID,92.6999,VALID,0,VALID,23.9939,VALID,92,VALID,0.369531,
2012-01-12, 03:26:04,VALID,999.692,VALID,0,VALID,92.7838,VALID,0,VALID,23.9762,VALID,92,VALID,0.158984,
2012-01-12, 03:27:04,VALID,999.615,VALID,0,VALID,92.8525,VALID,0,VALID,23.9354,VALID,92,VALID,0,
2012-01-12, 03:28:04,VALID,999.631,VALID,0,VALID,92.9211,VALID,0,VALID,23.9177,VALID,92,VALID,0,
2012-01-12, 03:29:04,VALID,999.58,VALID,0,VALID,92.9822,VALID,0,VALID,23.8982,VALID,92,VALID,0,
2012-01-12, 03:30:04,VALID,999.577,VALID,0,VALID,93.0127,VALID,0,VALID,23.8378,VALID,92,VALID,0,
2012-01-12, 03:31:04,VALID,999.579,VALID,0,VALID,93.089,VALID,0,VALID,23.8201,VALID,92,VALID,0,
2012-01-12, 03:32:04,VALID,999.586,VALID,0,VALID,93.1424,VALID,0,VALID,23.8006,VALID,92,VALID,0,
2012-01-12, 03:33:04,VALID,999.599,VALID,0,VALID,93.2263,VALID,0,VALID,23.7597,VALID,92,VALID,0,
2012-01-12, 03:34:04,VALID,999.573,VALID,0,VALID,93.3026,VALID,0,VALID,23.7402,VALID,92,VALID,0,
2012-01-12, 03:35:04,VALID,999.595,VALID,0,VALID,93.3713,VALID,0,VALID,23.7402,VALID,92,VALID,0,
2012-01-12, 03:36:04,VALID,999.583,VALID,0,VALID,93.4018,VALID,0,VALID,23.7402,VALID,92,VALID,0,
2012-01-12, 03:37:04,VALID,999.55,VALID,0,VALID,93.4476,VALID,0,VALID,23.7207,VALID,92,VALID,0,
2012-01-12, 03:38:04,VALID,999.572,VALID,0,VALID,93.4705,VALID,0,VALID,23.6994,VALID,92,VALID,0,
2012-01-12, 03:39:04,VALID,999.559,VALID,0,VALID,93.5239,VALID,0,VALID,23.7012,VALID,92,VALID,0,
2012-01-12, 03:40:04,VALID,999.566,VALID,0,VALID,93.5239,VALID,0,VALID,23.7207,VALID,92,VALID,0,
2012-01-12, 03:41:04,VALID,999.571,VALID,0,VALID,93.5391,VALID,0,VALID,23.7012,VALID,92,VALID,0,
2012-01-12, 03:42:04,VALID,999.572,VALID,0,VALID,93.5391,VALID,0,VALID,23.7207,VALID,92,VALID,0,
2012-01-12, 03:43:04,VALID,999.598,VALID,0,VALID,93.5468,VALID,0,VALID,23.6799,VALID,92,VALID,0,
2012-01-12, 03:44:04,VALID,999.609,VALID,0,VALID,93.562,VALID,0,VALID,23.7012,VALID,92,VALID,0,
2012-01-12, 03:45:04,VALID,999.636,VALID,0,VALID,93.5697,VALID,0,VALID,23.7012,VALID,92,VALID,0,
2012-01-12, 03:46:04,VALID,999.657,VALID,0,VALID,93.5391,VALID,0,VALID,23.7207,VALID,102,VALID,0,
2012-01-12, 03:47:04,VALID,999.701,VALID,0,VALID,93.5315,VALID,0,VALID,23.7207,VALID,102,VALID,0,
2012-01-12, 03:48:04,VALID,999.719,VALID,0,VALID,93.501,VALID,0,VALID,23.7207,VALID,102,VALID,0,
2012-01-12, 03:49:04,VALID,999.783,VALID,0,VALID,93.4552,VALID,0,VALID,23.6994,VALID,102,VALID,0,
2012-01-12, 03:50:04,VALID,999.795,VALID,0,VALID,93.4247,VALID,0,VALID,23.6799,VALID,110,VALID,0.957422,